Previsão horária em Almerek

Hoje, 20 Janeiro, Quarta-feira

Tempo Temperatura Precipitação Vento Pressão Humidade
00:00 +4°C° 0.1 mm 1 m/s 703 mmHg 66%
01:00 +4°C° 0.1 mm 1 m/s 704 mmHg 65%
02:00 +4°C° 0.1 mm 1 m/s 704 mmHg 65%
03:00 +4°C° 0 mm 1 m/s 704 mmHg 67%
04:00 +5°C° 0 mm 1 m/s 705 mmHg 69%
05:00 +5°C° 0 mm 1 m/s 705 mmHg 75%
06:00 +5°C° 0 mm 1 m/s 705 mmHg 76%
07:00 +5°C° 0 mm 1 m/s 706 mmHg 77%
08:00 +4°C° 0 mm 1 m/s 706 mmHg 78%
09:00 +3°C° 0.5 mm 2 m/s 706 mmHg 85%
10:00 +3°C° 0.5 mm 2 m/s 707 mmHg 92%
11:00 +2°C° 0.5 mm 3 m/s 707 mmHg 98%
12:00 +3°C° 1.3 mm 2 m/s 707 mmHg 96%
13:00 +4°C° 1.3 mm 2 m/s 707 mmHg 93%
14:00 +5°C° 1.3 mm 2 m/s 708 mmHg 91%
15:00 +4°C° 0 mm 2 m/s 708 mmHg 85%
16:00 +3°C° 0 mm 2 m/s 708 mmHg 79%
17:00 +3°C° 0 mm 2 m/s 709 mmHg 74%
18:00 +2°C° 0 mm 2 m/s 709 mmHg 72%
19:00 +2°C° 0 mm 2 m/s 709 mmHg 69%
20:00 +2°C° 0 mm 2 m/s 709 mmHg 67%
21:00 +2°C° 0 mm 2 m/s 709 mmHg 66%
22:00 +2°C° 0 mm 2 m/s 709 mmHg 64%
23:00 +2°C° 0 mm 2 m/s 708 mmHg 63%

Amanhã, 21 Janeiro, Quinta-feira

Tempo Temperatura Precipitação Vento Pressão Humidade
00:00 +1°C° 0 mm 3 m/s 708 mmHg 65%
01:00 0°C° 0 mm 4 m/s 707 mmHg 66%
02:00 0°C° 0 mm 5 m/s 706 mmHg 68%
03:00 -1°C° 0 mm 5 m/s 706 mmHg 69%
04:00 -1°C° 0 mm 5 m/s 705 mmHg 70%
05:00 -1°C° 0 mm 5 m/s 705 mmHg 71%
06:00 -1°C° 0 mm 5 m/s 704 mmHg 70%
07:00 -1°C° 0 mm 5 m/s 704 mmHg 70%
08:00 -1°C° 0 mm 5 m/s 703 mmHg 69%
09:00 0°C° 0 mm 5 m/s 702 mmHg 71%
10:00 +1°C° 0 mm 4 m/s 701 mmHg 74%
11:00 +3°C° 0 mm 4 m/s 700 mmHg 76%
12:00 +3°C° 0 mm 4 m/s 699 mmHg 77%
13:00 +3°C° 0 mm 4 m/s 698 mmHg 77%
14:00 +3°C° 0 mm 4 m/s 697 mmHg 77%
15:00 +3°C° 0 mm 3 m/s 697 mmHg 72%
16:00 +2°C° 0 mm 3 m/s 697 mmHg 67%
17:00 +2°C° 0 mm 3 m/s 697 mmHg 62%
18:00 +2°C° 0 mm 2 m/s 697 mmHg 62%
19:00 +2°C° 0 mm 2 m/s 696 mmHg 61%
20:00 +2°C° 0 mm 1 m/s 696 mmHg 61%
21:00 +2°C° 0 mm 1 m/s 696 mmHg 61%
22:00 +1°C° 0 mm 2 m/s 695 mmHg 61%
23:00 +1°C° 0 mm 2 m/s 695 mmHg 60%

Depois de amanhã, 22 Janeiro, Sexta-feira

Tempo Temperatura Precipitação Vento Pressão Humidade
00:00 +1°C° 0 mm 2 m/s 694 mmHg 59%
01:00 +2°C° 0 mm 1 m/s 694 mmHg 58%
02:00 +2°C° 0 mm 1 m/s 693 mmHg 57%
03:00 +2°C° 0 mm 1 m/s 693 mmHg 57%
04:00 +2°C° 0 mm 1 m/s 693 mmHg 57%
05:00 +2°C° 0 mm 1 m/s 693 mmHg 57%
06:00 +1°C° 0 mm 2 m/s 694 mmHg 58%
07:00 +1°C° 0 mm 2 m/s 695 mmHg 60%
08:00 +1°C° 0 mm 3 m/s 696 mmHg 61%
09:00 +1°C° 0 mm 3 m/s 697 mmHg 67%
10:00 +1°C° 0 mm 3 m/s 698 mmHg 74%
11:00 +2°C° 0 mm 3 m/s 699 mmHg 80%
12:00 0°C° 0.5 mm 4 m/s 700 mmHg 82%
13:00 0°C° 0.5 mm 5 m/s 701 mmHg 83%
14:00 -2°C° 0.5 mm 6 m/s 702 mmHg 85%
15:00 -2°C° 0.9 mm 5 m/s 704 mmHg 86%
16:00 -5°C° 0.9 mm 5 m/s 706 mmHg 86%
17:00 -7°C° 0.9 mm 4 m/s 707 mmHg 86%
18:00 -6°C° 0.7 mm 3 m/s 709 mmHg 89%
19:00 -6°C° 0.7 mm 2 m/s 710 mmHg 92%
20:00 -6°C° 0.7 mm 2 m/s 711 mmHg 94%
21:00 -6°C° 0.3 mm 2 m/s 712 mmHg 93%
22:00 -6°C° 0.3 mm 2 m/s 712 mmHg 91%
23:00 -6°C° 0.3 mm 2 m/s 713 mmHg 89%

23 Janeiro, Sábado

Tempo Temperatura Precipitação Vento Pressão Humidade
00:00 -7°C° 0 mm 2 m/s 713 mmHg 86%
01:00 -8°C° 0 mm 3 m/s 713 mmHg 83%
02:00 -9°C° 0 mm 3 m/s 714 mmHg 80%
03:00 -9°C° 0 mm 2 m/s 713 mmHg 78%
04:00 -9°C° 0 mm 2 m/s 713 mmHg 75%
05:00 -10°C° 0 mm 2 m/s 713 mmHg 73%
06:00 -9°C° 0 mm 1 m/s 713 mmHg 74%
07:00 -8°C° 0 mm 1 m/s 714 mmHg 76%
08:00 -8°C° 0 mm 1 m/s 714 mmHg 77%
09:00 -7°C° 0 mm 1 m/s 714 mmHg 77%
10:00 -7°C° 0 mm 1 m/s 714 mmHg 76%
11:00 -6°C° 0 mm 1 m/s 713 mmHg 75%
12:00 -7°C° 0 mm 2 m/s 713 mmHg 75%
13:00 -6°C° 0 mm 2 m/s 713 mmHg 75%
14:00 -6°C° 0 mm 2 m/s 712 mmHg 75%
15:00 -7°C° 0 mm 2 m/s 713 mmHg 78%
16:00 -6°C° 0 mm 1 m/s 713 mmHg 81%
17:00 -7°C° 0 mm 1 m/s 713 mmHg 84%
18:00 -7°C° 0 mm 1 m/s 714 mmHg 85%
19:00 -8°C° 0 mm 1 m/s 714 mmHg 85%
20:00 -9°C° 0 mm 2 m/s 715 mmHg 85%
21:00 -8°C° 0 mm 2 m/s 715 mmHg 80%
22:00 -8°C° 0 mm 2 m/s 715 mmHg 76%
23:00 -8°C° 0 mm 3 m/s 715 mmHg 71%

24 Janeiro, Domingo

Tempo Temperatura Precipitação Vento Pressão Humidade
00:00 -8°C° 0.1 mm 3 m/s 716 mmHg 73%
01:00 -7°C° 0.1 mm 3 m/s 716 mmHg 74%
02:00 -6°C° 0.1 mm 2 m/s 716 mmHg 76%
03:00 -7°C° 0.1 mm 3 m/s 717 mmHg 79%
04:00 -8°C° 0.1 mm 3 m/s 718 mmHg 82%
05:00 -8°C° 0.1 mm 3 m/s 718 mmHg 85%
06:00 -7°C° 0.1 mm 2 m/s 719 mmHg 82%
07:00 -7°C° 0.1 mm 2 m/s 720 mmHg 80%
08:00 -7°C° 0.1 mm 2 m/s 721 mmHg 77%
09:00 -4°C° 0 mm 1 m/s 721 mmHg 77%
10:00 -4°C° 0 mm 1 m/s 720 mmHg 77%
11:00 -3°C° 0 mm 1 m/s 720 mmHg 77%
12:00 -3°C° 0 mm 1 m/s 719 mmHg 78%
13:00 -2°C° 0 mm 1 m/s 719 mmHg 79%
14:00 -2°C° 0 mm 1 m/s 718 mmHg 80%
15:00 -3°C° 0 mm 1 m/s 718 mmHg 82%
16:00 -4°C° 0 mm 1 m/s 718 mmHg 84%
17:00 -6°C° 0 mm 2 m/s 718 mmHg 87%
18:00 -7°C° 0 mm 2 m/s 718 mmHg 84%
19:00 -7°C° 0 mm 2 m/s 718 mmHg 80%
20:00 -7°C° 0 mm 2 m/s 718 mmHg 77%
21:00 -7°C° 0 mm 2 m/s 717 mmHg 76%
22:00 -8°C° 0 mm 3 m/s 717 mmHg 75%
23:00 -8°C° 0 mm 3 m/s 716 mmHg 75%

25 Janeiro, Segunda-feira

Tempo Temperatura Precipitação Vento Pressão Humidade
00:00 -8°C° 0 mm 3 m/s 716 mmHg 76%
01:00 -9°C° 0 mm 3 m/s 715 mmHg 77%
02:00 -9°C° 0 mm 3 m/s 715 mmHg 78%
03:00 -9°C° 0 mm 3 m/s 715 mmHg 77%
04:00 -10°C° 0 mm 4 m/s 714 mmHg 77%
05:00 -11°C° 0 mm 4 m/s 714 mmHg 76%
06:00 -10°C° 0 mm 3 m/s 714 mmHg 77%
07:00 -10°C° 0 mm 3 m/s 713 mmHg 77%
08:00 -10°C° 0 mm 3 m/s 713 mmHg 77%
09:00 -9°C° 0 mm 3 m/s 713 mmHg 78%
10:00 -8°C° 0 mm 3 m/s 712 mmHg 80%
11:00 -7°C° 0 mm 3 m/s 712 mmHg 81%
12:00 -5°C° 0 mm 2 m/s 712 mmHg 82%
13:00 -5°C° 0 mm 2 m/s 711 mmHg 82%
14:00 -4°C° 0 mm 2 m/s 711 mmHg 83%
15:00 -3°C° 0 mm 1 m/s 711 mmHg 83%
16:00 -6°C° 0 mm 1 m/s 711 mmHg 84%
17:00 -7°C° 0 mm 0 m/s 711 mmHg 84%
18:00 -7°C° 0 mm 0 m/s 711 mmHg 81%
19:00 -7°C° 0 mm 0 m/s 711 mmHg 79%
20:00 -8°C° 0 mm 0 m/s 712 mmHg 76%
21:00 -8°C° 0 mm 0 m/s 712 mmHg 75%
22:00 -8°C° 0 mm 0 m/s 712 mmHg 74%
23:00 -8°C° 0 mm 0 m/s 712 mmHg 73%
Mostrar mais

Necessitamos do seu Consentimento

A Meteoprog e os seus Fornecedores de Serviços podem armazenar e aceder a dados pessoais como cookies, identificadores do dispositivo ou outras tecnologias semelhantes existentes no seu dispositivo e processar estes dados para personalizar conteúdos e anúncios, assim como funcionalidades nas redes sociais e análise de tráfego.

  • Armazenar e/ou aceder a informações no seu dispositivo

    Os cookies, identificadores do dispositivo ou outras informações podem ser armazenados ou acedidos no seu dispositivo, para os fins acima indicados.

  • Anúncios e conteúdos personalizados, medição de anúncios e conteúdos, dados sobre o público-alvo e desenvolvimento de produtos

    Os anúncios e os conteúdos podem ser personalizados com base num perfil. Podem ser adicionados dados adicionais para uma maior personalização dos anúncios e dos conteúdos. A eficácia dos anúncios e dos conteúdos pode ser medida. Podem ser obtidas informações sobre o público que visualizou os anúncios e os conteúdos. Estes dados podem ser usados para desenvolver ou melhorar sistemas, softwares ou a experiência do utilizador.

Ao clicar em "Eu concordo”, permitirá o uso de cookies, identificadores do dispositivo e web beacons mencionados ou outras tecnologias semelhantes. As configurações do navegador do seu dispositivo podem ser alteradas.

Para certos fins, podem ser invocados interesses legítimos ao invés de consentimento. Pode ler mais informação sobre este assunto na nossa Política de Privacidade e Cookies.